Zurück zum Katalog

FENGYUN 1C DEB

AktivSSO
NORAD 30284·DEBRIS·🇨🇳 China

Gestartet May 10, 1999 von Taiyuan Satellite Launch Center

Loading…

Nächste Überflüge (nächste 24 Stunden)

TLE

AktuellSource: Space-Track

Epoche: Sep 14, 2026, 03:41 UTC

1 30284U 99025YV  26257.15379564  .00002327  00000-0  90479-3 0  9990
2 30284  98.7036 330.6314 0035500  25.2507   5.8464 14.30462568 14052

Verfolge FENGYUN 1C DEB in Echtzeit mit AllMySat

Download on the App Store